Time,TemperatureF,DewpointF,PressureIn,WindDirection,WindDirectionDegrees,WindSpeedMPH,WindSpeedGustMPH,Humidity,HourlyPrecipIn,Conditions,Clouds,dailyrainin,SoftwareType,DateUTC
2013-08-07 00:33:00,71.0,-99.9,30.11,SSE,147,-999.0,5.0,-999,0.00,,,-99.99,,2013-08-07 04:33:00,
2013-08-07 00:43:00,71.0,-99.9,30.11,SSE,147,-999.0,5.0,-999,0.00,,,-99.99,,2013-08-07 04:43:00,
2013-08-07 00:52:00,71.0,-99.9,30.11,SSE,147,-999.0,5.0,-999,0.00,,,-99.99,,2013-08-07 04:52:00,
2013-08-07 01:32:00,71.0,-99.9,30.11,SSW,195,-999.0,3.0,-999,0.00,,,-99.99,,2013-08-07 05:32:00,
2013-08-07 01:43:00,71.0,-99.9,30.11,SSW,195,-999.0,3.0,-999,0.00,,,-99.99,,2013-08-07 05:43:00,
2013-08-07 01:52:00,71.0,-99.9,30.11,SSW,195,-999.0,3.0,-999,0.00,,,-99.99,,2013-08-07 05:52:00,
2013-08-07 02:32:00,71.0,-99.9,30.11,South,188,-999.0,-999.0,-999,0.00,,,-99.99,,2013-08-07 06:32:00,
2013-08-07 02:43:00,71.0,-99.9,30.11,South,188,-999.0,-999.0,-999,0.00,,,-99.99,,2013-08-07 06:43:00,
2013-08-07 02:52:00,71.0,-99.9,30.11,South,188,-999.0,-999.0,-999,0.00,,,-99.99,,2013-08-07 06:52:00,
2013-08-07 02:53:00,68.0,-99.9,30.12,South,188,-999.0,-999.0,-999,0.00,,,-99.99,,2013-08-07 06:53:00,
2013-08-07 03:44:00,68.0,-99.9,30.12,South,188,-999.0,-999.0,-999,0.00,,,-99.99,,2013-08-07 07:44:00,
2013-08-07 03:53:00,66.0,-99.9,30.12,South,188,-999.0,-999.0,-999,0.00,,,-99.99,,2013-08-07 07:53:00,
2013-08-07 04:32:00,66.0,-99.9,30.12,South,188,-999.0,-999.0,-999,0.00,,,-99.99,,2013-08-07 08:32:00,
2013-08-07 04:44:00,66.0,-99.9,30.12,South,188,-999.0,-999.0,-999,0.00,,,-99.99,,2013-08-07 08:44:00,
2013-08-07 04:53:00,66.0,-99.9,30.12,South,188,-999.0,-999.0,-999,0.00,,,-99.99,,2013-08-07 08:53:00,
2013-08-07 05:32:00,66.0,-99.9,30.12,South,188,-999.0,-999.0,-999,0.00,,,-99.99,,2013-08-07 09:32:00,
2013-08-07 05:43:00,66.0,-99.9,30.12,South,188,-999.0,-999.0,-999,0.00,,,-99.99,,2013-08-07 09:43:00,
2013-08-07 06:32:00,66.0,-99.9,30.13,South,188,-999.0,-999.0,-999,0.00,,,-99.99,,2013-08-07 10:32:00,
2013-08-07 06:43:00,66.0,-99.9,30.13,South,188,-999.0,-999.0,-999,0.00,,,-99.99,,2013-08-07 10:43:00,
2013-08-07 06:52:00,66.0,-99.9,30.13,South,188,-999.0,-999.0,-999,0.00,,,-99.99,,2013-08-07 10:52:00,
2013-08-07 06:53:00,67.0,-99.9,30.14,South,188,-999.0,-999.0,-999,0.00,,,-99.99,,2013-08-07 10:53:00,
2013-08-07 07:32:00,67.0,-99.9,30.14,South,188,-999.0,-999.0,-999,0.00,,,-99.99,,2013-08-07 11:32:00,
2013-08-07 07:43:00,67.0,-99.9,30.14,South,188,-999.0,-999.0,-999,0.00,,,-99.99,,2013-08-07 11:43:00,
2013-08-07 07:53:00,68.0,-99.9,30.14,South,188,-999.0,-999.0,-999,0.00,,,-99.99,,2013-08-07 11:53:00,
2013-08-07 08:33:00,68.0,-99.9,30.14,South,188,-999.0,-999.0,-999,0.00,,,-99.99,,2013-08-07 12:33:00,
2013-08-07 08:43:00,68.0,-99.9,30.14,South,188,-999.0,-999.0,-999,0.00,,,-99.99,,2013-08-07 12:43:00,
2013-08-07 08:53:00,70.0,-99.9,30.12,South,188,-999.0,-999.0,-999,0.00,,,-99.99,,2013-08-07 12:53:00,
2013-08-07 09:32:00,70.0,-99.9,30.12,South,188,-999.0,-999.0,-999,0.00,,,-99.99,,2013-08-07 13:32:00,
2013-08-07 09:44:00,70.0,-99.9,30.12,South,188,-999.0,-999.0,-999,0.00,,,-99.99,,2013-08-07 13:44:00,
2013-08-07 10:33:00,73.0,-99.9,30.12,SSW,202,-999.0,9.0,-999,0.00,,,-99.99,,2013-08-07 14:33:00,
2013-08-07 10:43:00,73.0,-99.9,30.12,SSW,202,-999.0,9.0,-999,0.00,,,-99.99,,2013-08-07 14:43:00,
2013-08-07 10:52:00,73.0,-99.9,30.12,SSW,202,-999.0,9.0,-999,0.00,,,-99.99,,2013-08-07 14:52:00,
2013-08-07 10:53:00,74.0,-99.9,30.13,SE,129,-999.0,10.0,-999,0.00,,,-99.99,,2013-08-07 14:53:00,
2013-08-07 11:33:00,74.0,-99.9,30.13,SE,129,-999.0,10.0,-999,0.00,,,-99.99,,2013-08-07 15:33:00,
2013-08-07 11:44:00,74.0,-99.9,30.13,SE,129,-999.0,10.0,-999,0.00,,,-99.99,,2013-08-07 15:44:00,
2013-08-07 11:53:00,74.0,-99.9,30.13,SSW,200,5.0,7.0,-999,0.00,,,-99.99,,2013-08-07 15:53:00,
2013-08-07 12:33:00,74.0,-99.9,30.13,SSW,200,5.0,7.0,-999,0.00,,,-99.99,,2013-08-07 16:33:00,
2013-08-07 12:43:00,74.0,-99.9,30.13,SSW,200,5.0,7.0,-999,0.00,,,-99.99,,2013-08-07 16:43:00,
2013-08-07 13:33:00,74.0,-99.9,30.13,East,86,-999.0,5.0,-999,0.00,,,-99.99,,2013-08-07 17:33:00,
2013-08-07 13:43:00,74.0,-99.9,30.13,East,86,-999.0,5.0,-999,0.00,,,-99.99,,2013-08-07 17:43:00,
2013-08-07 13:52:00,74.0,-99.9,30.13,East,86,-999.0,5.0,-999,0.00,,,-99.99,,2013-08-07 17:52:00,
2013-08-07 14:43:00,77.0,-99.9,30.11,SE,130,6.0,10.0,-999,0.00,,,-99.99,,2013-08-07 18:43:00,
2013-08-07 14:52:00,77.0,-99.9,30.11,SE,130,6.0,10.0,-999,0.00,,,-99.99,,2013-08-07 18:52:00,
2013-08-07 14:53:00,78.0,-99.9,30.09,SSE,147,6.0,7.0,-999,0.00,,,-99.99,,2013-08-07 18:53:00,
2013-08-07 15:32:00,78.0,-99.9,30.09,SSE,147,6.0,7.0,-999,0.00,,,-99.99,,2013-08-07 19:32:00,
2013-08-07 15:44:00,78.0,-99.9,30.09,SSE,147,6.0,7.0,-999,0.00,,,-99.99,,2013-08-07 19:44:00,
2013-08-07 16:33:00,77.0,-99.9,30.10,SE,143,5.0,13.0,-999,0.00,,,-99.99,,2013-08-07 20:33:00,
2013-08-07 16:43:00,77.0,-99.9,30.10,SE,143,5.0,13.0,-999,0.00,,,-99.99,,2013-08-07 20:43:00,
2013-08-07 16:52:00,77.0,-99.9,30.10,SE,143,5.0,13.0,-999,0.00,,,-99.99,,2013-08-07 20:52:00,
2013-08-07 17:32:00,75.0,-99.9,30.09,East,83,-999.0,6.0,-999,0.00,,,-99.99,,2013-08-07 21:32:00,
2013-08-07 17:43:00,75.0,-99.9,30.09,East,83,-999.0,6.0,-999,0.00,,,-99.99,,2013-08-07 21:43:00,
2013-08-07 17:52:00,75.0,-99.9,30.09,East,83,-999.0,6.0,-999,0.00,,,-99.99,,2013-08-07 21:52:00,
2013-08-07 18:32:00,75.0,-99.9,30.07,SSE,147,7.0,10.0,-999,0.00,,,-99.99,,2013-08-07 22:32:00,
2013-08-07 18:43:00,75.0,-99.9,30.07,SSE,147,7.0,10.0,-999,0.00,,,-99.99,,2013-08-07 22:43:00,
2013-08-07 18:52:00,75.0,-99.9,30.07,SSE,147,7.0,10.0,-999,0.00,,,-99.99,,2013-08-07 22:52:00,
2013-08-07 19:32:00,74.0,-99.9,30.07,South,186,-999.0,10.0,-999,0.00,,,-99.99,,2013-08-07 23:32:00,
2013-08-07 19:43:00,74.0,-99.9,30.07,South,186,-999.0,10.0,-999,0.00,,,-99.99,,2013-08-07 23:43:00,
2013-08-07 19:52:00,74.0,-99.9,30.07,South,186,-999.0,10.0,-999,0.00,,,-99.99,,2013-08-07 23:52:00,
2013-08-07 19:53:00,73.0,-99.9,30.06,SE,135,3.0,11.0,-999,0.00,,,-99.99,,2013-08-07 23:53:00,
2013-08-07 20:43:00,73.0,-99.9,30.06,SE,135,3.0,11.0,-999,0.00,,,-99.99,,2013-08-08 00:43:00,
2013-08-07 20:53:00,73.0,-99.9,30.06,SE,146,3.0,9.0,-999,0.00,,,-99.99,,2013-08-08 00:53:00,
2013-08-07 21:32:00,73.0,-99.9,30.06,SE,146,3.0,9.0,-999,0.00,,,-99.99,,2013-08-08 01:32:00,
2013-08-07 21:43:00,73.0,-99.9,30.06,SE,146,3.0,9.0,-999,0.00,,,-99.99,,2013-08-08 01:43:00,
2013-08-07 22:32:00,72.0,-99.9,30.07,SE,126,3.0,8.0,-999,0.01,,,-99.99,,2013-08-08 02:32:00,
2013-08-07 22:43:00,72.0,-99.9,30.07,SE,126,3.0,8.0,-999,0.01,,,-99.99,,2013-08-08 02:43:00,
2013-08-07 22:52:00,72.0,-99.9,30.07,SE,126,3.0,8.0,-999,0.01,,,-99.99,,2013-08-08 02:52:00,
2013-08-07 23:32:00,72.0,-99.9,30.08,SE,135,-999.0,-999.0,-999,0.00,,,-99.99,,2013-08-08 03:32:00,
2013-08-07 23:43:00,72.0,-99.9,30.08,SE,135,-999.0,-999.0,-999,0.00,,,-99.99,,2013-08-08 03:43:00,
2013-08-07 23:52:00,72.0,-99.9,30.08,SE,135,-999.0,-999.0,-999,0.00,,,-99.99,,2013-08-08 03:52:00,
2013-08-07 23:53:00,71.0,-99.9,30.06,SE,135,-999.0,5.0,-999,0.02,,,-99.99,,2013-08-08 03:53:00,